Terug naar catalogus

KUIPER-00550

ActiefCommunicatieVLEO
NORAD 69617·PAYLOAD·🇺🇸 United States

Gelanceerd Jun 17, 2026 vanaf Guiana Space Centre

Loading…

Volgende Passages (komende 24 uur)

TLE

VersSource: CelesTrak SupGP

Epoch: Sep 14, 2026, 16:29 UTC

1 69617C 26140AB  26257.68726852 -.00660130  00000+0 -36928-1 0  2571
2 69617  51.8807 330.7343 0005794 281.5211 227.5879 15.13576445    10

Volg KUIPER-00550 in realtime met AllMySat

Download on the App Store